EW8181 Weather Reports


time (UTC)temp
C
wind
direction
speed
KPH
gust
KPH
rain 1hr
cm
rain 24hr
cm
rain mn
cm
humidity
%
barometer
mb
20260503053037 23 207 0.0 1.6 0.00 0.00 0.00 86 1012.6
20260503051503 23 217 0.0 3.2 0.00 0.00 0.00 86 1012.9
20260503050036 24 209 1.6 6.4 0.00 0.00 0.00 85 1013.1
20260503044509 24 255 0.0 4.8 0.00 0.00 0.00 85 1013.1
20260503043045 24 224 0.0 9.7 0.00 0.00 0.00 85 1013.1
20260503041511 25 248 1.6 6.4 0.00 0.00 0.00 85 1013.1
20260503040042 25 207 1.6 6.4 0.00 0.00 0.00 84 1013.0
20260503034515 25 195 1.6 6.4 0.00 0.00 0.00 84 1013.1
20260503033046 25 247 0.0 4.8 0.00 0.00 0.00 84 1012.9
20260503031525 25 209 0.0 6.4 0.00 0.00 0.00 82 1012.5
20260503030100 25 200 1.6 6.4 0.00 0.00 0.00 81 1012.5
20260503024529 25 215 1.6 6.4 0.00 0.00 0.00 80 1012.5
20260503023001 26 202 1.6 9.7 0.00 0.00 0.00 79 1012.5
20260503021537 26 214 1.6 9.7 0.00 0.00 0.00 78 1012.5
20260503020003 26 225 4.8 12.9 0.00 0.00 0.00 77 1012.3
20260503014537 26 209 4.8 12.9 0.00 0.00 0.00 75 1012.3
20260503013001 26 200 3.2 11.3 0.00 0.00 0.00 74 1012.1
20260503011543 26 198 1.6 11.3 0.00 0.00 0.00 72 1012.0
20260503010001 27 212 4.8 14.5 0.00 0.00 0.00 70 1011.9
20260503004535 27 211 4.8 11.3 0.00 0.00 0.00 68 1011.5
20260503003012 27 260 3.2 12.9 0.00 0.00 0.00 65 1011.4
20260503001544 28 228 4.8 17.7 0.00 0.00 0.00 63 1011.2
20260503000031 28 219 4.8 12.9 0.00 0.00 0.00 61 1011.1
20260502234601 29 226 3.2 11.3 0.00 0.00 0.00 59 1010.8
20260502233029 30 236 3.2 16.1 0.00 0.00 0.00 55 1010.5
20260502231502 31 224 4.8 12.9 0.00 0.00 0.00 52 1010.3
20260502230040 31 197 4.8 14.5 0.00 0.00 0.00 50 1010.1
20260502224514 32 325 3.2 17.7 0.00 0.00 0.00 46 1009.7
20260502223048 32 196 4.8 17.7 0.00 0.00 0.00 45 1009.6
20260502221522 33 238 6.4 20.9 0.00 0.00 0.00 43 1009.5
20260502220109 33 274 4.8 22.5 0.00 0.00 0.00 41 1009.3
20260502214535 33 205 6.4 22.5 0.00 0.00 0.00 42 1009.3
20260502213005 33 252 11.3 22.5 0.00 0.00 0.00 42 1009.2
20260502211542 33 226 6.4 20.9 0.00 0.00 0.00 42 1009.1
20260502210013 33 219 9.7 19.3 0.00 0.00 0.00 40 1009.0
20260502204549 33 227 8.0 25.7 0.00 0.00 0.00 41 1009.0
20260502203022 33 172 11.3 25.7 0.00 0.00 0.00 40 1009.1
20260502201557 33 207 6.4 25.7 0.00 0.00 0.00 43 1009.1
20260502200026 33 231 8.0 25.7 0.00 0.00 0.00 43 1009.3
20260502194600 33 231 8.0 22.5 0.00 0.00 0.00 42 1009.4
20260502193026 33 242 9.7 22.5 0.00 0.00 0.00 45 1009.5
20260502191604 33 248 9.7 29.0 0.00 0.00 0.00 44 1009.7
20260502190042 33 248 8.0 25.7 0.00 0.00 0.00 44 1009.9
20260502184503 33 192 6.4 24.1 0.00 0.00 0.00 47 1009.8
20260502183038 33 240 6.4 27.4 0.00 0.00 0.00 49 1009.9
20260502181514 33 201 8.0 29.0 0.00 0.00 0.00 48 1010.0
20260502163056 32 236 3.2 16.1 0.00 0.00 0.00 60 1010.4
20260502161605 32 225 8.0 22.5 0.00 0.00 0.00 62 1010.6
20260502151611 31 108 3.2 20.9 0.00 0.00 0.00 67 1011.0
20260502123006 26 87 1.6 17.7 0.00 0.00 0.00 87 1010.6
20260502121638 26 119 0.0 8.0 0.00 0.00 0.00 88 1010.9
20260502114510 24 118 3.2 8.0 0.00 0.00 0.00 90 1010.6
20260502113047 23 105 1.6 3.2 0.00 0.00 0.00 91 1010.7
20260502111507 23 130 1.6 4.8 0.00 0.00 0.00 92 1010.7
20260502110044 23 113 0.0 4.8 0.00 0.00 0.00 92 1010.7
20260502104514 23 96 0.0 3.2 0.00 0.00 0.00 92 1010.7
20260502103055 23 122 0.0 0.0 0.00 0.00 0.00 91 1010.7
20260502101528 23 122 0.0 0.0 0.00 0.00 0.00 91 1010.5
20260502100106 23 135 0.0 1.6 0.00 0.00 0.00 91 1010.6
20260502071517 21 240 0.0 0.0 0.00 0.00 0.00 88 1010.6
20260502070105 22 240 0.0 0.0 0.00 0.00 0.00 88 1010.8
20260502064520 22 240 0.0 0.0 0.00 0.00 0.00 87 1010.9
20260502063053 22 240 0.0 1.6 0.00 0.00 0.00 86 1011.0
20260502061520 22 240 0.0 1.6 0.00 0.00 0.00 85 1010.9
20260502060052 22 220 0.0 1.6 0.00 0.00 0.00 84 1011.0
20260502054533 23 193 0.0 1.6 0.00 0.00 0.00 83 1011.0